Flag for Bosnia-Herzegovina Weather past 2 weeks in Tuzla, Bosnia-Herzegovina

Now
55 °F

Partly sunny.


Feels Like: 54 °F
Forecast: 54 / 65 °F
Wind: 7 mph from West

Location: Tuzla

Current Time: May 25, 2015 at 10:20:06 PM

Latest Report: May 25, 2015 at 8:00 PM


Visibility: N/A

Pressure: 29.83 "Hg

Humidity: 100%

Dew point: 55 °F

Location of TuzlaLocation

Historic Weather in Tuzla — Graph

°F

Tuzla temperature yesterday

Maximum temperature yesterday: 59 °F (at 12:00 PM)
Minimum temperature yesterday: 55 °F (at 6:00 AM)
Average temperature yesterday: 57 °F

Past Weeks' High & Low Weather Summary

 TemperatureHumidityPressure
High86 °F (May 19, 2:00 PM)100% (May 11, 6:00 AM)30.36 "Hg (May 11, 6:00 AM)
Low41 °F (May 12, 6:30 AM)27% (May 19, 3:00 PM)29.77 "Hg (May 14, 4:00 PM)
Average65 °F74%29.98 "Hg
* Reported May 10 8:00 PM — May 25 8:00 PM, Tuzla, Weather by CustomWeather, © 2015

Note: Actual official high and low records may vary slightly from our data, if they occured in-between our weather recording intervals... More about our weather records

Advertising

Tuzla weather history for previous 24 hours

 ConditionsComfort  
Time TempWeatherWind HumidityBarometerVisibility
8:00 PM
Mon, May 25
55 °FPartly sunny.7 mph100%29.83 "HgN/A
7:00 PM57 °FPartly sunny.10 mph100%29.83 "HgN/A
6:00 PM57 °FPartly sunny.9 mph100%29.83 "HgN/A
5:00 PM57 °FPartly sunny.13 mph100%29.83 "HgN/A
4:00 PM59 °FPartly sunny.15 mph100%29.83 "HgN/A
3:00 PM59 °FBroken clouds.15 mph100%29.83 "HgN/A
2:00 PM59 °FBroken clouds.12 mph100%29.86 "HgN/A
1:00 PM59 °FLight rain. Broken clouds.12 mph100%29.86 "HgN/A
12:30 PM57 °FLight rain. Broken clouds.12 mph100%29.86 "HgN/A
12:00 PM57 °FLight rain. Partly sunny.12 mph100%29.86 "HgN/A
11:30 AM57 °FLight rain. Mostly cloudy.10 mph94%29.86 "HgN/A
11:00 AM57 °FLight rain. Partly sunny.9 mph94%29.86 "HgN/A
10:30 AM55 °FLight rain. Broken clouds.12 mph100%29.86 "HgN/A
10:00 AM55 °FLight rain. Broken clouds.9 mph100%29.86 "HgN/A
9:30 AM55 °FLight rain. Broken clouds.7 mph100%29.86 "HgN/A
9:00 AM55 °FLight rain. Partly sunny.8 mph100%29.86 "HgN/A
8:30 AM55 °FLight rain. Partly sunny.7 mph100%29.86 "HgN/A
8:00 AM55 °FLight rain. Partly sunny.7 mph100%29.86 "HgN/A
7:00 AM54 °FLight rain. Partly sunny.6 mph100%29.86 "HgN/A
6:30 AM54 °FLight rain. Partly sunny.6 mph100%29.86 "HgN/A
6:00 AM54 °FLight rain. Passing clouds.6 mph100%29.86 "HgN/A
Weather by CustomWeather, © 2015

See weather overviewHow to use our weather pages